Total_Precipitation_Accumulation
1.55 2.01 2.52 3.03 3.71 4.62 5.53 5.85 5.57 4.98 4.55 4.14 3.64 3.25 2.89 2.62 2.50 2.20 1.85 1.69 1.62 1.62 1.79 1.56 1.67 1.69 1.74 1.74 1.77 1.85 1.74 1.53 1.70 1.97 1.78 1.43 1.25 1.20 1.11 1.08 1.17 1.08 1.12
1.61 2.11 2.69 3.11 3.46 3.99 4.73 5.01 4.63 3.98 3.41 3.13 2.96 2.76 2.66 2.34 2.12 2.01 1.88 1.58 1.52 1.54 1.57 1.62 1.39 1.41 1.54 1.46 1.48 1.74 1.70 1.47 1.57 1.88 1.99 1.74 1.65 1.40 0.91 0.95 1.05 1.07 1.21
1.46 2.17 2.68 2.95 3.24 3.45 3.44 3.55 3.42 2.91 2.56 2.45 2.44 2.40 2.46 2.27 2.01 1.86 1.69 1.44 1.35 1.28 1.32 1.31 1.30 1.40 1.35 1.39 1.46 1.54 1.64 1.53 1.43 1.54 1.95 1.86 1.65 1.41 1.15 1.04 1.00 1.14 1.38
1.30 2.04 2.29 2.36 2.45 2.57 2.38 2.38 2.45 2.27 2.20 2.10 2.11 1.97 1.83 1.77 1.66 1.65 1.55 1.42 1.32 1.24 1.14 1.17 1.15 1.23 1.24 1.45 1.26 1.32 1.50 1.53 1.37 1.40 1.52 1.56 1.60 1.58 1.39 1.18 1.06 1.13 1.26
1.00 1.34 1.39 1.49 1.59 1.68 1.72 1.88 2.12 2.13 2.03 1.97 2.06 2.04 1.77 1.60 1.50 1.51 1.57 1.43 1.30 1.23 1.12 1.15 1.21 1.23 1.22 1.27 1.29 1.47 1.46 1.42 1.38 1.36 1.42 1.53 1.57 1.47 1.47 1.41 1.20 1.12 1.02
0.69 0.89 0.94 0.97 1.04 1.10 1.23 1.43 1.80 1.95 1.86 1.82 1.85 1.81 1.72 1.64 1.49 1.38 1.39 1.37 1.28 1.25 1.25 1.22 1.29 1.28 1.26 1.26 1.27 1.35 1.36 1.40 1.45 1.37 1.34 1.50 1.60 1.53 1.55 1.45 1.27 1.16 0.97
0.61 0.72 0.84 0.86 0.80 0.79 0.90 1.09 1.32 1.45 1.49 1.55 1.64 1.69 1.74 1.66 1.49 1.39 1.29 1.27 1.17 1.15 1.28 1.30 1.31 1.36 1.37 1.30 1.31 1.30 1.25 1.34 1.47 1.39 1.31 1.31 1.31 1.42 1.49 1.47 1.29 1.21 1.09
0.46 0.48 0.56 0.55 0.54 0.63 0.72 0.88 1.00 1.08 1.17 1.25 1.38 1.50 1.52 1.51 1.41 1.42 1.31 1.24 1.13 1.11 1.23 1.32 1.30 1.27 1.22 1.19 1.37 1.27 1.23 1.34 1.40 1.34 1.53 1.45 1.26 1.43 1.54 1.56 1.60 1.45 1.40
0.31 0.29 0.30 0.30 0.37 0.52 0.65 0.72 0.80 0.89 0.98 1.06 1.22 1.34 1.36 1.34 1.35 1.35 1.23 1.17 1.20 1.15 1.20 1.15 1.21 1.22 1.17 1.19 1.31 1.30 1.31 1.36 1.33 1.41 1.60 1.57 1.45 1.47 1.52 1.65 1.82 1.94 1.77
0.25 0.24 0.22 0.22 0.23 0.28 0.44 0.59 0.69 0.81 0.93 0.99 1.01 1.06 1.21 1.18 1.19 1.16 1.09 1.16 1.19 1.17 1.23 1.24 1.14 1.14 1.16 1.24 1.35 1.34 1.33 1.43 1.50 1.64 1.74 1.73 1.69 1.68 1.59 1.64 1.76 1.93 1.97
0.28 0.22 0.21 0.20 0.19 0.23 0.34 0.49 0.58 0.68 0.77 0.80 0.82 0.94 1.05 1.04 1.01 1.00 0.98 1.03 1.06 1.10 1.14 1.17 1.17 1.17 1.23 1.40 1.65 1.61 1.55 1.58 1.64 1.73 1.87 1.92 2.05 2.03 1.84 1.78 1.75 1.80 1.92
0.37 0.28 0.25 0.21 0.26 0.27 0.31 0.42 0.44 0.47 0.51 0.57 0.64 0.76 0.90 0.90 0.90 0.92 1.05 1.10 1.08 1.02 0.95 0.99 1.05 1.04 1.14 1.36 1.68 1.81 1.81 1.81 1.74 1.82 2.05 2.08 2.08 2.00 1.89 1.90 1.82 1.78 1.92
0.37 0.44 0.40 0.28 0.30 0.27 0.30 0.34 0.31 0.36 0.40 0.44 0.50 0.62 0.76 0.88 0.94 0.98 1.05 1.13 1.13 1.08 1.07 1.08 1.09 1.19 1.24 1.28 1.47 1.65 1.73 1.76 1.73 1.86 1.93 1.95 2.03 1.95 1.90 1.83 1.78 1.74 1.89
0.35 0.48 0.52 0.31 0.26 0.27 0.30 0.29 0.31 0.36 0.37 0.42 0.51 0.60 0.69 0.86 0.97 1.03 1.10 1.17 1.21 1.19 1.22 1.21 1.24 1.33 1.35 1.32 1.41 1.55 1.65 1.70 1.74 1.84 1.91 1.96 1.96 2.01 2.11 2.00 1.95 2.00 2.08
0.37 0.34 0.37 0.30 0.30 0.31 0.31 0.32 0.37 0.42 0.41 0.47 0.55 0.61 0.70 0.77 0.87 1.04 1.15 1.26 1.31 1.25 1.31 1.37 1.36 1.35 1.29 1.25 1.45 1.60 1.60 1.73 1.80 1.81 1.78 1.85 2.03 2.11 2.14 1.98 2.00 2.11 2.09
0.44 0.47 0.47 0.43 0.45 0.43 0.39 0.39 0.46 0.49 0.55 0.65 0.69 0.72 0.80 0.90 0.95 1.03 1.07 1.21 1.28 1.33 1.41 1.48 1.50 1.42 1.24 1.42 1.55 1.58 1.61 1.70 1.76 1.77 1.70 1.62 1.65 1.73 1.83 1.81 1.75 1.79 1.85
0.59 0.67 0.71 0.66 0.62 0.54 0.47 0.48 0.54 0.61 0.69 0.79 0.91 0.98 1.03 1.13 1.17 1.18 1.16 1.19 1.33 1.43 1.47 1.48 1.48 1.46 1.53 1.57 1.43 1.38 1.31 1.38 1.47 1.47 1.43 1.25 1.17 1.38 1.46 1.59 1.58 1.47 1.44
0.60 0.71 0.79 0.80 0.73 0.69 0.67 0.74 0.79 0.85 0.98 1.09 1.21 1.33 1.39 1.46 1.52 1.56 1.52 1.52 1.56 1.65 1.64 1.56 1.57 1.67 1.69 1.68 1.45 1.34 1.21 1.22 1.24 1.23 1.19 1.18 1.16 1.21 1.30 1.37 1.37 1.32 1.28
0.68 0.84 0.84 0.82 0.82 0.93 0.95 0.95 1.00 1.08 1.25 1.42 1.54 1.64 1.69 1.73 1.74 1.72 1.76 1.81 1.90 1.92 1.91 1.88 1.93 1.95 2.01 1.98 1.69 1.55 1.35 1.30 1.25 1.26 1.31 1.32 1.21 1.26 1.22 1.20 1.21 1.21 1.26
0.77 0.89 0.95 0.94 1.02 1.24 1.27 1.28 1.33 1.41 1.46 1.51 1.62 1.78 1.90 1.96 1.91 1.90 2.01 2.16 2.28 2.24 2.25 2.28 2.30 2.24 2.20 2.15 1.80 1.63 1.42 1.43 1.41 1.44 1.39 1.32 1.17 1.12 1.07 1.06 1.13 1.09 1.09
0.74 0.84 0.89 0.97 1.04 1.21 1.34 1.56 1.69 1.73 1.76 1.78 1.79 1.84 1.93 2.04 2.04 2.09 2.14 2.27 2.37 2.35 2.32 2.26 2.20 2.14 2.15 2.10 1.79 1.63 1.48 1.51 1.55 1.49 1.42 1.34 1.22 1.05 0.99 0.94 0.94 0.97 1.01
0.64 0.74 0.91 1.02 1.12 1.28 1.51 1.69 1.84 1.96 2.04 2.02 2.07 2.05 2.06 2.01 1.96 2.11 2.23 2.32 2.43 2.38 2.34 2.36 2.25 2.15 2.11 1.95 1.74 1.58 1.50 1.59 1.65 1.61 1.53 1.45 1.30 1.06 0.98 0.88 0.87 0.88 0.86
0.71 0.75 0.88 1.02 1.11 1.21 1.43 1.75 1.80 1.83 1.87 1.92 1.94 1.99 2.00 2.03 2.06 2.14 2.23 2.34 2.35 2.31 2.24 2.24 2.23 2.14 2.04 1.97 1.77 1.55 1.45 1.47 1.48 1.58 1.65 1.50 1.33 1.14 1.00 0.98 0.93 0.85 0.79
0.76 0.82 0.89 1.00 1.08 1.04 1.14 1.32 1.46 1.53 1.57 1.59 1.62 1.64 1.75 1.83 1.98 2.16 2.19 2.25 2.30 2.32 2.31 2.25 2.18 2.13 2.08 2.07 1.88 1.64 1.46 1.45 1.50 1.56 1.61 1.47 1.35 1.18 1.03 1.00 0.91 0.80 0.78
0.67 0.74 0.89 0.89 0.93 1.01 1.00 1.03 1.09 1.25 1.36 1.40 1.44 1.51 1.62 1.72 1.88 2.07 2.18 2.11 2.12 2.25 2.16 2.03 1.93 1.87 1.83 1.90 1.79 1.57 1.47 1.47 1.55 1.61 1.68 1.62 1.50 1.39 1.24 1.14 1.09 1.04 0.99
0.67 0.72 0.79 0.79 0.79 0.88 0.89 0.90 1.02 1.20 1.31 1.29 1.29 1.32 1.35 1.46 1.58 1.75 1.84 1.78 1.56 1.58 1.49 1.36 1.24 1.21 1.24 1.30 1.25 1.17 1.11 1.15 1.29 1.41 1.58 1.58 1.47 1.39 1.35 1.31 1.24 1.18 1.10